This demonstration page uses our WeatherBlox Daily Observations layout. Learn more.

Left ArrowRight Arrow

Hourly Observations for October 16, 2018

Temp ( °F °C ) Dew Point ( °F °C ) Humidity (%) Winds ( mph kmh ) Pressure ( in mb ) Visibility ( mi km ) Precip ( " mm )
12:51 am 00:51 Cloudy 48 8.9 45 7.2 89 89 ESE 8 13 30.06 1018 10 16 0.03 0.76
1:51 am 01:51 Cloudy with Light Rain 47 8.3 44 6.7 90 90 E 10 17 30.04 1017 7 11 0.01 0.25
2:51 am 02:51 Cloudy 48 8.9 43 6.1 83 83 ESE 9 15 30.02 1017 10 16 0.01 0.25
3:51 am 03:51 Cloudy with Light Rain 48 8.9 44 6.7 86 86 SE 7 11 30.02 1017 6 10 0.01 0.25
4:51 am 04:51 Cloudy with Light Rain 45 7.2 44 6.7 97 97 SSE 8 13 30.04 1017 9 14 0.09 2.29
5:51 am 05:51 Cloudy with Light Rain 45 7.2 43 6.1 93 93 S 8 13 30.07 1018 8 13 0.06 1.52
6:47 am 06:47 Cloudy with Rain 45 7 45 7 100 100 SSE 7 11 30.18 1022 5 8 0.11 2.79
6:51 am 06:51 Cloudy with Rain 44 6.7 44 6.7 100 100 SSE 7 11 30.10 1019 4 6 0.12 3.05
7:18 am 07:18 Cloudy with Light Rain 45 7.2 44 6.7 97 97 SE 5 7 30.18 1022 8 13 0.02 0.51
7:47 am 07:47 Cloudy with Rain 45 7 45 7 100 100 SSE 5 7 30.21 1023 3 4 0.05 1.27
7:48 am 07:48 Cloudy with Rain 45 7.2 44 6.7 97 97 SSE 5 7 30.13 1020 3 4 0.05 1.27
8:06 am 08:06 Cloudy with Light Rain 45 7 45 7 100 100 SE 6 9 30.21 1023 3 5 0.00 0.00
8:09 am 08:09 Cloudy with Rain 44 6.7 44 6.7 100 100 SE 6 9 30.21 1023 3 5 0.05 1.27
8:39 am 08:39 Cloudy with Light Rain 45 7.2 44 6.7 97 97 S 6 9 30.21 1023 4 6 0.10 2.54
8:51 am 08:51 Cloudy with Light Rain 45 7.2 43 6.1 93 93 SSE 7 11 30.16 1021 3 5 0.12 3.05
9:00 am 09:00 Cloudy with Light Rain 45 7 45 7 100 100 S 8 13 30.24 1024 5 8 0.00 0.00
9:27 am 09:27 Cloudy with Light Rain 45 7.2 44 6.7 97 97 E 10 17 30.21 1023 5 8 0.01 0.25
9:51 am 09:51 Cloudy with Light Rain 45 7.2 43 6.1 93 93 E 14 22 30.15 1021 10 16 0.02 0.51
11:01 am 11:01 Cloudy 47 8.3 45 7.2 93 93 SSE 12 19 30.21 1023 10 16 0.00 0.00
11:12 am 11:12 Cloudy 48 8.9 42 5.6 80 80 SE 14 22 30.18 1022 10 16 0.00 0.00
11:51 am 11:51 Cloudy 48 8.9 41 5 77 77 ESE 14 22 30.13 1020 10 16 0.00 0.00
11:59 am 11:59 Cloudy 48 8.9 41 5 77 77 E 16 26 30.18 1022 10 16 0.00 0.00
1:51 pm 13:51 Cloudy 50 10 41 5 71 71 SE 8 13 30.10 1019 10 16 0.00 0.00
2:51 pm 14:51 Cloudy 51 10.6 41 5 69 69 SE 9 15 30.11 1020 10 16 0.00 0.00
3:51 pm 15:51 Cloudy 51 10.6 42 5.6 71 71 E 7 11 30.11 1020 10 16 0.00 0.00
4:51 pm 16:51 Cloudy 51 10.6 42 5.6 71 71 E 6 9 30.11 1020 10 16 0.00 0.00
5:51 pm 17:51 Cloudy 51 10.6 43 6.1 74 74 E 7 11 30.12 1020 10 16 0.00 0.00
6:51 pm 18:51 Cloudy 51 10.6 41 5 69 69 ESE 10 17 30.14 1021 10 16 0.00 0.00
7:51 pm 19:51 Cloudy 51 10.6 41 5 69 69 ESE 9 15 30.16 1021 10 16 0.00 0.00
8:51 pm 20:51 Cloudy 51 10.6 41 5 69 69 SE 9 15 30.17 1022 10 16 0.00 0.00
10:51 pm 22:51 Cloudy 51 10.6 42 5.6 71 71 SE 7 11 30.17 1022 10 16 0.00 0.00
11:51 pm 23:51 Cloudy 50 10 43 6.1 77 77 SSE 8 13 30.17 1022 10 16 0.00 0.00

Powered by AerisWeather